{"data":{"norad_id":58459,"intl_designator":"2023-183Y","name":"STARLINK-30977","alt_names":[],"object_type":"PAYLOAD","status":"ACTIVE","operator":null,"country":"US","launch_date":"2023-11-28","launch_site_code":"AFETR","launch_vehicle":null,"mission":null,"orbit_class":"UNKNOWN","rcs_meters":null,"size_class":null,"mass_kg":null,"dimensions":null,"purposes":["comms"],"wikipedia_slug":null,"has_3d_model":false,"image_url":null,"decayed_at":null,"tle_current":{"epoch":"2026-05-24T21:14:05.697888Z","epoch_age_seconds":80969,"freshness":"FRESH","line1":"1 58459U 23183Y   26144.88478817 -.00001464  00000+0 -43665-4 0  9990","line2":"2 58459  43.0012 331.6232 0001347 266.7765  93.2933 15.27581560138389","mean_motion":15.2758156,"eccentricity":0.0001347,"inclination_deg":43.0012,"raan_deg":331.6232,"arg_perigee_deg":266.7765,"mean_anomaly_deg":93.2933,"bstar":-4.3665e-5,"rev_number":13838,"period_min":94.266652446368,"perigee_km":482.12022370449,"apogee_km":483.96862598035,"semimajor_km":6861.1814248424,"source":"CELESTRAK","updated_at":"2026-05-25T13:38:18.626381Z"}}}